Location: Grand Lay
(47.3253°N, 0.9468°E)
Time: 08:51:40
(UTC+00:00)

Cosmos 2084 Rocket - Pass Details

Date: 18 January 2026
Orbit: 541 x 571 km, 62.8° (Epoch: 16 February)

Event Time Altitude Azimuth Distance (km) Brightness Sun altitude
Exits shadow 05:50:40 25° 331° (NNW) 1,180 4.6 -17.6°
Maximum altitude 05:53:01 64° 46° (NE) 636 3.7 -17.2°
Drops below altitude 10° 05:57:13 10° 128° (SE) 1,871 7.0 -16.5°
Sets 05:59:28 0° 132° (SE) 2,767 8.0 -16.1°
